Terug naar catalogus

STARLINK-32086

ActiefCommunicatieVLEO
NORAD 59703·PAYLOAD·🇺🇸 United States

Gelanceerd May 8, 2024 vanaf Cape Canaveral Space Force Station

Loading…

Volgende Passages (komende 24 uur)

TLE

VersSource: CelesTrak SupGP

Epoch: Sep 14, 2026, 22:10 UTC

1 59703C 24086X   26257.92409722  .00067884  00000+0  24589-2 0  2570
2 59703  42.9998  70.8848 0001376 242.3256 230.8848 15.27543482    18

Volg STARLINK-32086 in realtime met AllMySat

Download on the App Store